Weather History for Inverness, FL

Change the Weather History Date:

Sunday, March 18, 2012

  Actual Average (KOCF) Record (KOCF)
Temperature  
Mean Temperature 77 °F -  
Max Temperature 86 °F 74 °F 87 °F (2002)
Min Temperature 64 °F 51 °F 37 °F (2007)
Cooling Degree Days 12    
Growing Degree Days 27 (Base 50)    
Moisture  
Dew Point 55 °F    
Average Humidity 48    
Maximum Humidity 77    
Minimum Humidity 33    
Precipitation  
Precipitation 0.00 in - - ()
Sea Level Pressure  
Sea Level Pressure 30.18 in    
Wind  
Wind Speed 6 mph ()    
Max Wind Speed 10 mph    
Max Gust Speed -    
Visibility 10.0 miles    
Events      
Averages and records for this station are not official NWS values.
T = Trace of Precipitation, MM = Missing Value Source: Averaged Metar Reports

Daily Weather History Graph

Daily Weather History Graph

Search for Another Location

Airport:

Trip Planner

Search our weather history database for the weather conditions in past years. The results will help you decide how hot, cold, wet, or windy it might be!

Date:

Astronomy

Mar. 18, 2012 Rise Set
Actual Time 7:34 AM EDT 7:39 PM EDT
Civil Twilight 7:11 AM EDT 8:03 PM EDT
Nautical Twilight 6:43 AM EDT 8:30 PM EDT
Astronomical Twilight 6:16 AM EDT 8:58 PM EDT
Moon 4:56 AM EDT (3/18) 4:20 PM EDT (3/18)
Length of Visible Light 12h 52m
Length of Day
12h 04m
Waning Crescent, 15% of the Moon is Illuminated
Mar 18
Waning Crescent
Mar 22
New
Mar 30
First Quarter
Apr 6
Full
Apr 13
Last Quarter

Hourly Weather History & Observations

Time (EDT) Temp. Heat Index Dew Point Humidity Pressure Visibility Wind Dir Wind Speed Gust Speed Precip Events Conditions
2:35 PM 82.4 °F 81.4 °F 53.6 °F 37% 30.22 in - ENE 9.2 mph - N/A   Unknown
2:55 PM 82.4 °F 81.4 °F 53.6 °F 37% 30.21 in 10.0 mi NE 8.1 mph - N/A   Clear
3:15 PM 84.2 °F 82.8 °F 53.6 °F 35% 30.20 in 10.0 mi NE 5.8 mph - N/A   Clear
3:35 PM 84.2 °F 82.8 °F 53.6 °F 35% 30.19 in 10.0 mi East 5.8 mph - N/A   Clear
3:55 PM 84.2 °F 82.8 °F 53.6 °F 35% 30.18 in 10.0 mi East 8.1 mph - N/A   Clear
4:15 PM 84.2 °F 83.0 °F 55.4 °F 37% 30.17 in 10.0 mi ENE 9.2 mph - N/A   Clear
4:55 PM 86.0 °F 84.2 °F 53.6 °F 33% 30.16 in 10.0 mi ESE 9.2 mph - N/A   Clear
5:15 PM 84.2 °F 82.8 °F 53.6 °F 35% 30.15 in 10.0 mi SE 10.4 mph - N/A   Clear
5:55 PM 82.4 °F 81.4 °F 53.6 °F 37% 30.16 in 10.0 mi ENE 4.6 mph - N/A   Clear
6:15 PM 82.4 °F 81.4 °F 53.6 °F 37% 30.16 in 10.0 mi ESE 6.9 mph - N/A   Scattered Clouds
6:35 PM 82.4 °F 81.4 °F 53.6 °F 37% 30.16 in 10.0 mi SE 9.2 mph - N/A   Scattered Clouds
6:55 PM 80.6 °F 80.3 °F 53.6 °F 39% 30.16 in 10.0 mi East 4.6 mph - N/A   Scattered Clouds
7:15 PM 80.6 °F 80.5 °F 55.4 °F 42% 30.16 in 10.0 mi East 5.8 mph - N/A   Mostly Cloudy
7:35 PM 78.8 °F - 55.4 °F 44% 30.16 in 10.0 mi East 3.5 mph - N/A   Scattered Clouds
7:55 PM 77.0 °F - 55.4 °F 47% 30.17 in 10.0 mi East 3.5 mph - N/A   Clear
8:15 PM 75.2 °F - 55.4 °F 50% 30.17 in 10.0 mi East 3.5 mph - N/A   Clear
8:35 PM 73.4 °F - 55.4 °F 53% 30.17 in 10.0 mi East 3.5 mph - N/A   Clear
8:55 PM 73.4 °F - 57.2 °F 57% 30.18 in 10.0 mi East 4.6 mph - N/A   Clear
9:15 PM 71.6 °F - 57.2 °F 60% 30.19 in 10.0 mi East 4.6 mph - N/A   Clear
9:35 PM 71.6 °F - 59.0 °F 64% 30.19 in 10.0 mi East 4.6 mph - N/A   Clear
9:55 PM 71.6 °F - 57.2 °F 60% 30.20 in 10.0 mi East 6.9 mph - N/A   Clear
10:15 PM 69.8 °F - 57.2 °F 64% 30.20 in 10.0 mi East 3.5 mph - N/A   Clear
10:35 PM 69.8 °F - 57.2 °F 64% 30.20 in 10.0 mi ESE 3.5 mph - N/A   Clear
10:55 PM 68.0 °F - 57.2 °F 68% 30.21 in 10.0 mi Calm Calm - N/A   Clear
11:35 PM 68.0 °F - 57.2 °F 68% 30.21 in 10.0 mi Calm Calm - N/A   Clear
11:55 PM 64.4 °F - 57.2 °F 77% 30.21 in 10.0 mi Calm Calm - N/A   Clear